Time,TemperatureF,DewpointF,PressureIn,WindDirection,WindDirectionDegrees,WindSpeedMPH,WindSpeedGustMPH,Humidity,HourlyPrecipIn,Conditions,Clouds,dailyrainin,SoftwareType,DateUTC
2013-12-10 00:07:00,32.5,26.1,29.88,West,270,5.3,-999.0,77,-99.99,,,0.00,Acu-Link.com,2013-12-10 05:07:00,
2013-12-10 00:23:00,32.5,26.1,29.87,NNW,337,4.7,-999.0,77,-99.99,,,0.00,Acu-Link.com,2013-12-10 05:23:00,
2013-12-10 00:38:00,32.4,25.7,29.87,NW,315,3.2,-999.0,76,-99.99,,,0.00,Acu-Link.com,2013-12-10 05:38:00,
2013-12-10 00:53:00,31.5,26.4,29.87,SSE,157,0.0,-999.0,81,-99.99,,,0.00,Acu-Link.com,2013-12-10 05:53:00,
2013-12-10 01:08:00,30.9,26.6,29.88,NNE,22,2.2,-999.0,84,-99.99,,,0.00,Acu-Link.com,2013-12-10 06:08:00,
2013-12-10 01:23:00,31.6,26.7,29.87,NNW,337,2.7,-999.0,82,-99.99,,,0.00,Acu-Link.com,2013-12-10 06:23:00,
2013-12-10 01:39:00,31.3,27.0,29.87,North,0,2.2,-999.0,84,-99.99,,,0.00,Acu-Link.com,2013-12-10 06:39:00,
2013-12-10 01:54:00,30.9,26.6,29.85,NNW,337,0.0,-999.0,84,-99.99,,,0.00,Acu-Link.com,2013-12-10 06:54:00,
2013-12-10 02:09:00,30.9,26.9,29.86,North,0,0.0,-999.0,85,-99.99,,,0.00,Acu-Link.com,2013-12-10 07:09:00,
2013-12-10 02:24:00,30.4,27.3,29.87,NNE,22,0.0,-999.0,88,-99.99,,,0.00,Acu-Link.com,2013-12-10 07:24:00,
2013-12-10 02:39:00,30.2,27.6,29.87,NE,45,1.7,-999.0,90,-99.99,,,0.00,Acu-Link.com,2013-12-10 07:39:00,
2013-12-10 02:54:00,30.0,27.2,29.89,NW,315,0.0,-999.0,89,-99.99,,,0.00,Acu-Link.com,2013-12-10 07:54:00,
2013-12-10 03:09:00,30.6,27.2,29.89,ESE,112,1.7,-999.0,87,-99.99,,,0.00,Acu-Link.com,2013-12-10 08:09:00,
2013-12-10 03:24:00,30.9,26.4,29.90,NNE,22,1.7,-999.0,83,-99.99,,,0.00,Acu-Link.com,2013-12-10 08:24:00,
2013-12-10 03:40:00,31.3,25.9,29.93,ESE,112,2.2,-999.0,80,-99.99,,,0.00,Acu-Link.com,2013-12-10 08:40:00,
2013-12-10 03:55:00,31.3,25.3,29.89,WSW,247,1.1,-999.0,78,-99.99,,,0.00,Acu-Link.com,2013-12-10 08:55:00,
2013-12-10 04:10:00,31.3,25.6,29.90,ESE,112,0.0,-999.0,79,-99.99,,,0.00,Acu-Link.com,2013-12-10 09:10:00,
2013-12-10 04:25:00,31.1,25.4,29.90,NNW,337,0.0,-999.0,79,-99.99,,,0.00,Acu-Link.com,2013-12-10 09:25:00,
2013-12-10 04:40:00,31.1,26.0,29.87,SW,225,0.0,-999.0,81,-99.99,,,0.00,Acu-Link.com,2013-12-10 09:40:00,
2013-12-10 04:56:00,30.7,24.7,29.83,NNW,337,2.2,-999.0,78,-99.99,,,0.00,Acu-Link.com,2013-12-10 09:56:00,
2013-12-10 05:11:00,30.6,26.6,29.83,South,180,0.0,-999.0,85,-99.99,,,0.00,Acu-Link.com,2013-12-10 10:11:00,
2013-12-10 05:26:00,30.2,26.2,29.87,West,270,0.0,-999.0,85,-99.99,,,0.00,Acu-Link.com,2013-12-10 10:26:00,
2013-12-10 05:41:00,30.4,24.7,29.89,West,270,0.0,-999.0,79,-99.99,,,0.00,Acu-Link.com,2013-12-10 10:41:00,
2013-12-10 05:56:00,30.4,25.3,29.87,NNW,337,0.0,-999.0,81,-99.99,,,0.00,Acu-Link.com,2013-12-10 10:56:00,
2013-12-10 06:11:00,30.4,25.9,29.86,West,270,0.0,-999.0,83,-99.99,,,0.00,Acu-Link.com,2013-12-10 11:11:00,
2013-12-10 06:26:00,30.2,25.4,29.86,North,0,0.0,-999.0,82,-99.99,,,0.00,Acu-Link.com,2013-12-10 11:26:00,
2013-12-10 06:41:00,30.0,25.8,29.87,WSW,247,0.0,-999.0,84,-99.99,,,0.00,Acu-Link.com,2013-12-10 11:41:00,
2013-12-10 06:56:00,29.8,25.3,29.88,SE,135,0.0,-999.0,83,-99.99,,,0.00,Acu-Link.com,2013-12-10 11:56:00,
2013-12-10 07:12:00,29.8,25.6,29.86,West,270,0.0,-999.0,84,-99.99,,,0.00,Acu-Link.com,2013-12-10 12:12:00,
2013-12-10 07:27:00,29.7,26.3,29.84,NNE,22,1.7,-999.0,87,-99.99,,,0.00,Acu-Link.com,2013-12-10 12:27:00,
2013-12-10 07:42:00,29.3,25.4,29.85,West,270,0.0,-999.0,85,-99.99,,,0.00,Acu-Link.com,2013-12-10 12:42:00,
2013-12-10 07:57:00,29.5,23.5,29.86,North,0,0.0,-999.0,78,-99.99,,,0.00,Acu-Link.com,2013-12-10 12:57:00,
2013-12-10 08:12:00,29.7,25.2,29.86,West,270,2.2,-999.0,83,-99.99,,,0.00,Acu-Link.com,2013-12-10 13:12:00,
2013-12-10 08:27:00,29.7,24.3,29.85,ESE,112,0.0,-999.0,80,-99.99,,,0.00,Acu-Link.com,2013-12-10 13:27:00,
2013-12-10 08:42:00,29.7,24.3,29.86,SE,135,0.0,-999.0,80,-99.99,,,0.00,Acu-Link.com,2013-12-10 13:42:00,
2013-12-10 08:57:00,29.7,25.2,29.85,ESE,112,1.1,-999.0,83,-99.99,,,0.00,Acu-Link.com,2013-12-10 13:57:00,
2013-12-10 09:12:00,29.5,25.6,29.85,WNW,292,1.7,-999.0,85,-99.99,,,0.00,Acu-Link.com,2013-12-10 14:12:00,
2013-12-10 09:28:00,29.7,25.5,29.83,West,270,0.0,-999.0,84,-99.99,,,0.00,Acu-Link.com,2013-12-10 14:28:00,
2013-12-10 09:43:00,29.3,25.1,29.84,SW,225,2.7,-999.0,84,-99.99,,,0.00,Acu-Link.com,2013-12-10 14:43:00,
2013-12-10 09:58:00,29.3,25.1,29.85,NW,315,0.0,-999.0,84,-99.99,,,0.00,Acu-Link.com,2013-12-10 14:58:00,
2013-12-10 10:13:00,29.1,24.0,29.85,NNW,337,2.7,-999.0,81,-99.99,,,0.00,Acu-Link.com,2013-12-10 15:13:00,
2013-12-10 10:28:00,28.9,23.2,29.85,West,270,1.7,-999.0,79,-99.99,,,0.00,Acu-Link.com,2013-12-10 15:28:00,
2013-12-10 10:43:00,28.4,23.9,29.84,NNW,337,5.8,-999.0,83,-99.99,,,0.00,Acu-Link.com,2013-12-10 15:43:00,
2013-12-10 11:01:00,28.0,22.9,29.84,NNE,22,3.7,-999.0,81,-99.99,,,0.00,Acu-Link.com,2013-12-10 16:01:00,
2013-12-10 13:37:00,30.9,23.6,29.80,SSE,157,2.7,-999.0,74,-99.99,,,0.00,Acu-Link.com,2013-12-10 18:37:00,
2013-12-10 14:02:00,30.9,21.9,29.80,ENE,67,11.4,-999.0,69,-99.99,,,0.00,Acu-Link.com,2013-12-10 19:02:00,
2013-12-10 14:17:00,30.4,20.4,29.80,WNW,292,4.7,-999.0,66,-99.99,,,0.00,Acu-Link.com,2013-12-10 19:17:00,
2013-12-10 14:33:00,30.4,19.0,29.81,NE,45,3.7,-999.0,62,-99.99,,,0.00,Acu-Link.com,2013-12-10 19:33:00,
2013-12-10 14:48:00,29.8,16.0,29.82,SSW,202,4.7,-999.0,56,-99.99,,,0.00,Acu-Link.com,2013-12-10 19:48:00,
2013-12-10 15:03:00,34.3,16.7,29.82,ESE,112,0.0,-999.0,48,-99.99,,,0.00,Acu-Link.com,2013-12-10 20:03:00,
2013-12-10 15:18:00,34.9,17.2,29.82,East,90,5.8,-999.0,48,-99.99,,,0.00,Acu-Link.com,2013-12-10 20:18:00,
2013-12-10 15:33:00,34.2,16.6,29.83,SW,225,6.8,-999.0,48,-99.99,,,0.00,Acu-Link.com,2013-12-10 20:33:00,
2013-12-10 15:48:00,33.6,14.0,29.83,West,270,7.3,-999.0,44,-99.99,,,0.00,Acu-Link.com,2013-12-10 20:48:00,
2013-12-10 16:04:00,30.2,12.9,29.84,NE,45,2.7,-999.0,48,-99.99,,,0.00,Acu-Link.com,2013-12-10 21:04:00,
2013-12-10 16:19:00,28.9,12.6,29.84,NNW,337,4.2,-999.0,50,-99.99,,,0.00,Acu-Link.com,2013-12-10 21:19:00,
2013-12-10 16:40:00,28.0,12.7,29.84,WSW,247,0.0,-999.0,52,-99.99,,,0.00,Acu-Link.com,2013-12-10 21:40:00,
2013-12-10 16:55:00,27.7,12.8,29.83,SSE,157,0.0,-999.0,53,-99.99,,,0.00,Acu-Link.com,2013-12-10 21:55:00,
2013-12-10 17:10:00,27.1,11.4,29.83,East,90,2.2,-999.0,51,-99.99,,,0.00,Acu-Link.com,2013-12-10 22:10:00,
2013-12-10 17:25:00,27.1,11.4,29.83,SW,225,0.0,-999.0,51,-99.99,,,0.00,Acu-Link.com,2013-12-10 22:25:00,
2013-12-10 17:40:00,26.6,12.2,29.82,SSW,202,0.0,-999.0,54,-99.99,,,0.00,Acu-Link.com,2013-12-10 22:40:00,
2013-12-10 17:55:00,25.9,13.2,29.84,ENE,67,0.0,-999.0,58,-99.99,,,0.00,Acu-Link.com,2013-12-10 22:55:00,
2013-12-10 18:10:00,25.5,11.2,29.84,ESE,112,1.7,-999.0,54,-99.99,,,0.00,Acu-Link.com,2013-12-10 23:10:00,
2013-12-10 18:25:00,25.3,12.2,29.85,West,270,2.7,-999.0,57,-99.99,,,0.00,Acu-Link.com,2013-12-10 23:25:00,
2013-12-10 18:40:00,25.5,11.2,29.85,West,270,2.7,-999.0,54,-99.99,,,0.00,Acu-Link.com,2013-12-10 23:40:00,
2013-12-10 18:56:00,25.5,11.6,29.86,NE,45,0.0,-999.0,55,-99.99,,,0.00,Acu-Link.com,2013-12-10 23:56:00,
2013-12-10 19:11:00,25.3,10.2,29.86,SSE,157,0.0,-999.0,52,-99.99,,,0.00,Acu-Link.com,2013-12-11 00:11:00,
2013-12-10 19:26:00,24.1,12.6,29.87,NW,315,0.0,-999.0,61,-99.99,,,0.00,Acu-Link.com,2013-12-11 00:26:00,
2013-12-10 19:41:00,23.2,13.9,29.89,WNW,292,0.0,-999.0,67,-99.99,,,0.00,Acu-Link.com,2013-12-11 00:41:00,
2013-12-10 19:57:00,22.1,13.8,29.89,NNW,337,0.0,-999.0,70,-99.99,,,0.00,Acu-Link.com,2013-12-11 00:57:00,
2013-12-10 20:12:00,21.4,14.4,29.91,SSE,157,2.7,-999.0,74,-99.99,,,0.00,Acu-Link.com,2013-12-11 01:12:00,
2013-12-10 20:27:00,21.0,13.7,29.91,NE,45,0.0,-999.0,73,-99.99,,,0.00,Acu-Link.com,2013-12-11 01:27:00,
2013-12-10 20:43:00,20.8,13.2,29.91,East,90,2.2,-999.0,72,-99.99,,,0.00,Acu-Link.com,2013-12-11 01:43:00,
2013-12-10 20:58:00,20.5,13.9,29.92,NE,45,0.0,-999.0,75,-99.99,,,0.00,Acu-Link.com,2013-12-11 01:58:00,
2013-12-10 21:13:00,20.5,13.2,29.93,North,0,1.1,-999.0,73,-99.99,,,0.00,Acu-Link.com,2013-12-11 02:13:00,
2013-12-10 21:28:00,20.5,13.2,29.94,WNW,292,0.0,-999.0,73,-99.99,,,0.00,Acu-Link.com,2013-12-11 02:28:00,
2013-12-10 21:43:00,20.7,14.4,29.94,SE,135,0.0,-999.0,76,-99.99,,,0.00,Acu-Link.com,2013-12-11 02:43:00,
2013-12-10 21:58:00,21.0,12.8,29.95,North,0,0.0,-999.0,70,-99.99,,,0.00,Acu-Link.com,2013-12-11 02:58:00,
2013-12-10 22:13:00,22.5,11.8,29.95,SSE,157,0.0,-999.0,63,-99.99,,,0.00,Acu-Link.com,2013-12-11 03:13:00,
2013-12-10 22:28:00,22.5,11.1,29.96,ESE,112,3.7,-999.0,61,-99.99,,,0.00,Acu-Link.com,2013-12-11 03:28:00,
2013-12-10 22:43:00,23.0,11.6,29.97,ESE,112,0.0,-999.0,61,-99.99,,,0.00,Acu-Link.com,2013-12-11 03:43:00,
2013-12-10 22:59:00,23.0,11.6,29.98,NNW,337,0.0,-999.0,61,-99.99,,,0.00,Acu-Link.com,2013-12-11 03:59:00,
2013-12-10 23:14:00,23.2,11.4,29.99,ESE,112,1.7,-999.0,60,-99.99,,,0.00,Acu-Link.com,2013-12-11 04:14:00,
2013-12-10 23:29:00,23.5,11.7,29.99,SSE,157,2.7,-999.0,60,-99.99,,,0.00,Acu-Link.com,2013-12-11 04:29:00,
2013-12-10 23:44:00,23.7,11.5,30.00,South,180,0.0,-999.0,59,-99.99,,,0.00,Acu-Link.com,2013-12-11 04:44:00,
2013-12-10 23:59:00,23.2,11.8,30.01,NNW,337,1.7,-999.0,61,-99.99,,,0.00,Acu-Link.com,2013-12-11 04:59:00,